Weather History for Gwinner, ND

Change the Weather History Date:

Saturday, March 22, 2014

  Actual Average (KP67) Record (KP67)
Temperature  
Mean Temperature 17 °F -  
Max Temperature 24 °F 34 °F 37 °F (1997)
Min Temperature 10 °F 22 °F 27 °F (1997)
Degree Days  
Heating Degree Days 48    
Moisture  
Dew Point 6 °F    
Average Humidity 62    
Maximum Humidity 79    
Minimum Humidity 46    
Precipitation  
Precipitation 0.00 in - - ()
Sea Level Pressure  
Sea Level Pressure 30.48 in    
Wind  
Wind Speed 12 mph (NNW)    
Max Wind Speed 17 mph    
Max Gust Speed 24 mph    
Visibility 10 miles    
Events      
Averages and records for this station are not official NWS values.
T = Trace of Precipitation, MM = Missing Value Source: NWS Daily Summary

Daily Weather History Graph

Daily Weather History Graph

Search for Another Location

Airport:

Trip Planner

Search our weather history database for the weather conditions in past years. The results will help you decide how hot, cold, wet, or windy it might be!

Date:

Astronomy

Mar. 22, 2014 Rise Set
Actual Time 7:29 AM CDT 7:45 PM CDT
Civil Twilight 6:59 AM CDT 8:15 PM CDT
Nautical Twilight 6:24 AM CDT 8:51 PM CDT
Astronomical Twilight 5:48 AM CDT 9:27 PM CDT
Moon 1:22 AM CDT (3/22) 10:57 AM CDT (3/22)
Length of Visible Light 13h 16m
Length of Day
12h 16m
Waning Gibbous, 65% of the Moon is Illuminated
Mar 22
Waning Gibbous
Mar 23
Last Quarter
Mar 30
New
Apr 7
First Quarter
Apr 15
Full

Hourly Weather History & Observations

Time (CDT) Temp. Windchill Dew Point Humidity Pressure Visibility Wind Dir Wind Speed Gust Speed Precip Events Conditions
12:15 AM 17.6 °F 2.2 °F 6.8 °F 63% 30.39 in 10.0 mi North 17.3 mph 23.0 mph 0.00 in   Scattered Clouds
12:35 AM 17.6 °F 2.2 °F 5.0 °F 58% 30.40 in 10.0 mi North 17.3 mph 24.2 mph 0.00 in   Scattered Clouds
12:55 AM 17.6 °F 3.7 °F 6.8 °F 63% 30.40 in 10.0 mi North 13.8 mph 20.7 mph 0.00 in   Clear
1:15 AM 15.8 °F 0.3 °F 5.0 °F 62% 30.40 in 10.0 mi North 16.1 mph - 0.00 in   Clear
1:35 AM 15.8 °F 0.9 °F 3.2 °F 58% 30.41 in 10.0 mi North 15.0 mph - 0.00 in   Clear
1:55 AM 15.8 °F 0.9 °F 3.2 °F 58% 30.41 in 10.0 mi North 15.0 mph - 0.00 in   Clear
2:15 AM 15.8 °F -0.2 °F 5.0 °F 62% 30.41 in 10.0 mi North 17.3 mph - 0.00 in   Clear
2:35 AM 15.8 °F 0.3 °F 5.0 °F 62% 30.42 in 10.0 mi North 16.1 mph - 0.00 in   Mostly Cloudy
3:15 AM 14.0 °F -0.2 °F 5.0 °F 67% 30.43 in 10.0 mi North 12.7 mph - 0.00 in   Mostly Cloudy
3:35 AM 14.0 °F 0.5 °F 5.0 °F 67% 30.43 in 10.0 mi North 11.5 mph - 0.00 in   Scattered Clouds
3:55 AM 12.2 °F -0.2 °F 5.0 °F 73% 30.43 in 10.0 mi North 9.2 mph - 0.00 in   Clear
4:15 AM 12.2 °F 1.7 °F 5.0 °F 73% 30.44 in 10.0 mi North 6.9 mph - 0.00 in   Clear
4:35 AM 12.2 °F 2.9 °F 6.8 °F 79% 30.44 in 10.0 mi North 5.8 mph - 0.00 in   Clear
4:55 AM 12.2 °F 2.9 °F 6.8 °F 79% 30.44 in 10.0 mi NNW 5.8 mph - 0.00 in   Clear
5:15 AM 12.2 °F 2.9 °F 6.8 °F 79% 30.44 in 10.0 mi NNW 5.8 mph - 0.00 in   Clear
5:35 AM 12.2 °F 0.7 °F 6.8 °F 79% 30.45 in 10.0 mi NNW 8.1 mph - 0.00 in   Clear
5:55 AM 12.2 °F -0.2 °F 5.0 °F 73% 30.45 in 10.0 mi NNW 9.2 mph - 0.00 in   Clear
6:15 AM 12.2 °F -1.0 °F 5.0 °F 73% 30.45 in 10.0 mi NNW 10.4 mph - 0.00 in   Clear
6:35 AM 12.2 °F -1.8 °F 5.0 °F 73% 30.46 in 10.0 mi NNW 11.5 mph - 0.00 in   Clear
6:55 AM 10.4 °F -3.3 °F 5.0 °F 79% 30.46 in 10.0 mi NNW 10.4 mph - 0.00 in   Clear
7:15 AM 10.4 °F -3.3 °F 3.2 °F 73% 30.47 in 10.0 mi NNW 10.4 mph - 0.00 in   Clear
7:35 AM 10.4 °F -3.3 °F 3.2 °F 73% 30.47 in 10.0 mi North 10.4 mph - 0.00 in   Clear
7:55 AM 10.4 °F -1.5 °F 5.0 °F 79% 30.48 in 10.0 mi North 8.1 mph - 0.00 in   Clear
8:15 AM 10.4 °F -2.4 °F 5.0 °F 79% 30.48 in 10.0 mi NNW 9.2 mph - 0.00 in   Clear
8:35 AM 12.2 °F -2.5 °F 5.0 °F 73% 30.49 in 10.0 mi North 12.7 mph 16.1 mph 0.00 in   Clear
8:55 AM 12.2 °F -1.0 °F 5.0 °F 73% 30.49 in 10.0 mi North 10.4 mph - 0.00 in   Clear
9:15 AM 12.2 °F -3.7 °F 5.0 °F 73% 30.50 in 10.0 mi North 15.0 mph - 0.00 in   Partly Cloudy
9:35 AM 12.2 °F -2.5 °F 3.2 °F 67% 30.50 in 10.0 mi North 12.7 mph - 0.00 in   Partly Cloudy
9:55 AM 14.0 °F -0.8 °F 5.0 °F 67% 30.51 in 10.0 mi North 13.8 mph - 0.00 in   Mostly Cloudy
10:15 AM 14.0 °F -0.2 °F 5.0 °F 67% 30.51 in 10.0 mi NNW 12.7 mph - 0.00 in   Mostly Cloudy
10:35 AM 15.8 °F 3.4 °F 5.0 °F 62% 30.51 in 10.0 mi North 10.4 mph - 0.00 in   Mostly Cloudy
10:55 AM 17.6 °F 3.7 °F 5.0 °F 58% 30.52 in 10.0 mi North 13.8 mph - 0.00 in   Mostly Cloudy
11:15 AM 15.8 °F 2.7 °F 5.0 °F 62% 30.52 in 10.0 mi NNW 11.5 mph - 0.00 in   Mostly Cloudy
11:35 AM 17.6 °F 6.4 °F 5.0 °F 58% 30.52 in 10.0 mi North 9.2 mph - 0.00 in   Scattered Clouds
11:55 AM 17.6 °F 5.0 °F 3.2 °F 53% 30.52 in 10.0 mi NW 11.5 mph 16.1 mph 0.00 in   Mostly Cloudy
12:15 PM 19.4 °F 6.0 °F 5.0 °F 54% 30.52 in 10.0 mi WNW 13.8 mph 18.4 mph 0.00 in   Mostly Cloudy
12:35 PM 19.4 °F 9.5 °F 5.0 °F 54% 30.52 in 10.0 mi NNW 8.1 mph 20.7 mph 0.00 in   Scattered Clouds
12:55 PM 21.2 °F 8.3 °F 6.8 °F 54% 30.52 in 10.0 mi NW 13.8 mph 17.3 mph 0.00 in   Scattered Clouds
1:15 PM 21.2 °F 8.9 °F 5.0 °F 50% 30.52 in 10.0 mi NNW 12.7 mph 17.3 mph 0.00 in   Mostly Cloudy
1:35 PM 21.2 °F 9.5 °F 5.0 °F 50% 30.51 in 10.0 mi NNW 11.5 mph 17.3 mph 0.00 in   Mostly Cloudy
1:55 PM 21.2 °F 8.9 °F 6.8 °F 54% 30.51 in 10.0 mi North 12.7 mph - 0.00 in   Mostly Cloudy
2:15 PM 21.2 °F 9.5 °F 6.8 °F 54% 30.50 in 10.0 mi NNW 11.5 mph 17.3 mph 0.00 in   Mostly Cloudy
2:35 PM 21.2 °F 9.5 °F 6.8 °F 54% 30.50 in 10.0 mi NW 11.5 mph - 0.00 in   Scattered Clouds
2:55 PM 21.2 °F 9.5 °F 5.0 °F 50% 30.50 in 10.0 mi NNW 11.5 mph - 0.00 in   Mostly Cloudy
3:15 PM 23.0 °F 11.7 °F 6.8 °F 50% 30.49 in 10.0 mi North 11.5 mph 19.6 mph 0.00 in   Mostly Cloudy
3:35 PM 23.0 °F 11.1 °F 6.8 °F 50% 30.49 in 10.0 mi NNW 12.7 mph - 0.00 in   Mostly Cloudy
3:55 PM 23.0 °F 11.7 °F 6.8 °F 50% 30.49 in 10.0 mi North 11.5 mph - 0.00 in   Mostly Cloudy
4:15 PM 23.0 °F 11.7 °F 5.0 °F 46% 30.49 in 10.0 mi NNW 11.5 mph - 0.00 in   Scattered Clouds
4:35 PM 24.8 °F 12.4 °F 6.8 °F 46% 30.48 in 10.0 mi North 15.0 mph 19.6 mph 0.00 in   Mostly Cloudy
4:55 PM 23.0 °F 10.6 °F 5.0 °F 46% 30.48 in 10.0 mi NW 13.8 mph 18.4 mph 0.00 in   Partly Cloudy
5:15 PM 21.2 °F 9.5 °F 5.0 °F 50% 30.48 in 10.0 mi NNW 11.5 mph - 0.00 in   Clear
5:35 PM 23.0 °F 11.1 °F 5.0 °F 46% 30.48 in 10.0 mi NW 12.7 mph 20.7 mph 0.00 in   Partly Cloudy
5:55 PM 23.0 °F 11.1 °F 5.0 °F 46% 30.49 in 10.0 mi NW 12.7 mph - 0.00 in   Partly Cloudy
6:15 PM 23.0 °F 10.1 °F 5.0 °F 46% 30.49 in 10.0 mi NW 15.0 mph - 0.00 in   Scattered Clouds
6:35 PM 23.0 °F 9.6 °F 5.0 °F 46% 30.49 in 10.0 mi NW 16.1 mph 19.6 mph 0.00 in   Scattered Clouds
6:55 PM 21.2 °F 8.9 °F 5.0 °F 50% 30.49 in 10.0 mi NW 12.7 mph - 0.00 in   Scattered Clouds
7:15 PM 21.2 °F 8.3 °F 5.0 °F 50% 30.49 in 10.0 mi NNW 13.8 mph - 0.00 in   Partly Cloudy
7:35 PM 21.2 °F 10.1 °F 5.0 °F 50% 30.50 in 10.0 mi NNW 10.4 mph - 0.00 in   Partly Cloudy
7:55 PM 19.4 °F 6.6 °F 5.0 °F 54% 30.50 in 10.0 mi NNW 12.7 mph - 0.00 in   Scattered Clouds
8:15 PM 19.4 °F 7.2 °F 5.0 °F 54% 30.50 in 10.0 mi NNW 11.5 mph - 0.00 in   Partly Cloudy
8:35 PM 17.6 °F 7.3 °F 5.0 °F 58% 30.51 in 10.0 mi NNW 8.1 mph - 0.00 in   Clear
8:55 PM 17.6 °F 8.2 °F 6.8 °F 63% 30.51 in 10.0 mi NNW 6.9 mph - 0.00 in   Clear
9:15 PM 17.6 °F 8.2 °F 6.8 °F 63% 30.52 in 10.0 mi NNW 6.9 mph - 0.00 in   Clear
9:35 PM 15.8 °F 5.1 °F 6.8 °F 68% 30.52 in 10.0 mi NW 8.1 mph - 0.00 in   Clear
9:55 PM 14.0 °F 6.5 °F 6.8 °F 73% 30.52 in 10.0 mi NW 4.6 mph - 0.00 in   Clear
10:15 PM 14.0 °F 5.1 °F 6.8 °F 73% 30.52 in 10.0 mi NW 5.8 mph - 0.00 in   Clear
10:35 PM 14.0 °F 5.1 °F 6.8 °F 73% 30.52 in 10.0 mi NW 5.8 mph - 0.00 in   Clear
10:55 PM 15.8 °F 7.2 °F 6.8 °F 68% 30.52 in 10.0 mi NW 5.8 mph - 0.00 in   Clear
11:15 PM 15.8 °F 8.6 °F 8.6 °F 73% 30.52 in 10.0 mi West 4.6 mph - 0.00 in   Clear
11:35 PM 14.0 °F 6.5 °F 8.6 °F 79% 30.52 in 10.0 mi West 4.6 mph - 0.00 in   Clear
11:55 PM 14.0 °F 5.1 °F 8.6 °F 79% 30.52 in 10.0 mi West 5.8 mph - 0.00 in   Clear